DW1958 Weather Reports


Display with metric or nautical units.
time (UTC)temp
F
wind
direction
speed
MPH
gust
MPH
rain 1hr
in
rain 24hr
in
rain mn
in
humidity
%
barometer
mb
20260508145122 30 0 0.0 2.0 0.00 0.04 0.00 94 1006.3
20260508144222 30 0 0.0 0.0 0.00 0.04 0.00 94 1006.4
20260508143322 30 0 0.0 0.0 0.00 0.04 0.00 94 1006.5
20260508142422 30 0 0.0 0.0 0.00 0.04 0.00 94 1006.6
20260508140622 30 0 0.0 0.0 0.00 0.04 0.00 94 1006.9
20260508135722 30 0 0.0 0.0 0.00 0.04 0.00 94 1007.0
20260508134822 30 0 0.0 0.0 0.00 0.04 0.00 94 1007.1
20260508133922 30 0 0.0 0.0 0.00 0.04 0.00 94 1007.1
20260508133022 30 0 0.0 0.0 0.00 0.04 0.00 94 1007.1
20260508132122 30 0 0.0 0.0 0.00 0.04 0.00 94 1007.2
20260508131222 31 0 0.0 0.0 0.00 0.04 0.00 94 1007.3
20260508130322 31 0 0.0 0.0 0.00 0.04 0.00 94 1007.4
20260508125422 31 0 0.0 0.0 0.00 0.04 0.00 94 1007.4
20260508124522 31 0 0.0 0.0 0.00 0.04 0.00 94 1007.6
20260508123622 31 0 0.0 0.0 0.00 0.04 0.00 94 1007.6
20260508122722 31 0 0.0 0.0 0.00 0.04 0.00 94 1007.6
20260508121822 31 0 0.0 0.0 0.00 0.04 0.00 94 1007.7
20260508120922 31 0 0.0 0.0 0.00 0.04 0.00 94 1007.8
20260508120022 31 0 0.0 0.0 0.00 0.04 0.00 94 1007.9
20260508115122 31 0 0.0 1.0 0.00 0.04 0.00 94 1008.0
20260508114222 31 0 0.0 0.0 0.00 0.04 0.00 94 1008.0
20260508113322 31 0 0.0 0.0 0.00 0.04 0.00 94 1008.2
20260508112422 31 0 0.0 0.0 0.00 0.04 0.00 94 1008.3
20260508110622 31 0 0.0 0.0 0.00 0.04 0.00 94 1008.6
20260508104822 32 0 0.0 0.0 0.00 0.04 0.00 94 1008.7
20260508103922 32 0 0.0 0.0 0.00 0.04 0.00 94 1008.7
20260508103022 32 0 0.0 0.0 0.00 0.04 0.00 94 1008.8
20260508102122 32 0 0.0 0.0 0.00 0.04 0.00 94 1008.8
20260508101222 32 0 0.0 0.0 0.00 0.04 0.00 94 1008.9
20260508095422 32 0 0.0 0.0 0.00 0.04 0.00 94 1009.1
20260508094522 32 0 0.0 0.0 0.00 0.04 0.00 94 1009.2
20260508093622 32 0 0.0 0.0 0.00 0.04 0.00 94 1009.2
20260508092722 32 0 0.0 0.0 0.00 0.04 0.00 93 1009.2
20260508091822 32 0 0.0 0.0 0.00 0.04 0.00 94 1009.4
20260508090922 33 0 0.0 0.0 0.00 0.04 0.00 93 1009.4
20260508090022 33 0 0.0 0.0 0.00 0.04 0.00 93 1009.5
20260508085122 33 0 0.0 0.0 0.00 0.04 0.00 93 1009.5
20260508084222 33 0 0.0 0.0 0.00 0.04 0.00 93 1009.4
20260508083322 33 0 0.0 0.0 0.00 0.04 0.00 93 1009.5
20260508082422 34 0 0.0 0.0 0.00 0.04 0.00 93 1009.4
20260508080622 34 0 0.0 0.0 0.00 0.04 0.00 93 1009.5
20260508074822 34 0 0.0 0.0 0.00 0.04 0.04 93 1009.6
20260508073922 34 0 0.0 0.0 0.00 0.04 0.04 92 1009.7
20260508073022 34 0 0.0 0.0 0.00 0.04 0.04 92 1009.7
20260508072122 34 0 0.0 0.0 0.00 0.04 0.04 92 1009.8
20260508071222 35 0 0.0 0.0 0.00 0.04 0.04 92 1009.8
20260508065422 35 0 0.0 0.0 0.00 0.04 0.04 92 1009.9
20260508064522 36 0 0.0 0.0 0.00 0.04 0.04 92 1009.9
20260508063622 36 0 0.0 0.0 0.00 0.04 0.04 91 1009.9
20260508062722 36 0 0.0 0.0 0.00 0.04 0.04 91 1009.9
20260508061822 36 0 0.0 0.0 0.00 0.04 0.04 91 1009.9
20260508060922 37 0 0.0 0.0 0.00 0.04 0.04 91 1009.9
20260508054222 37 0 0.0 0.0 0.00 0.04 0.04 90 1010.0
20260508052422 38 0 0.0 4.0 0.00 0.04 0.04 91 1010.1
20260508051522 38 68 1.0 5.0 0.00 0.04 0.04 91 1010.1
20260508050622 38 49 1.0 4.0 0.00 0.04 0.04 92 1010.2
20260508045722 38 24 1.0 4.0 0.00 0.04 0.04 92 1010.1
20260508044822 38 25 1.0 6.0 0.00 0.04 0.04 92 1010.2
20260508042122 38 339 1.0 5.0 0.01 0.04 0.04 93 1010.3
20260508041223 37 340 1.0 7.0 0.01 0.04 0.04 93 1010.4
20260508035422 37 321 2.0 12.0 0.03 0.04 0.04 92 1010.5
20260508034523 36 309 3.0 10.0 0.04 0.04 0.04 91 1010.6
20260508033622 37 297 4.0 11.0 0.04 0.04 0.04 91 1010.8
20260508032722 38 283 4.0 13.0 0.04 0.04 0.04 90 1011.0
20260508031822 38 269 4.0 12.0 0.03 0.03 0.03 88 1011.2
20260508030922 40 251 5.0 13.0 0.02 0.02 0.02 85 1011.5
20260508030022 41 239 6.0 18.0 0.01 0.01 0.01 79 1011.6
20260508025123 44 230 7.0 21.0 0.00 0.00 0.00 69 1011.5
20260508024223 45 247 4.0 17.0 0.00 0.00 0.00 61 1011.1
20260508023322 46 64 1.0 7.0 0.00 0.00 0.00 62 1010.6
20260508022423 46 69 2.0 10.0 0.00 0.00 0.00 60 1010.4
20260508021522 46 55 2.0 10.0 0.00 0.00 0.00 60 1010.3
20260508020622 47 64 2.0 7.0 0.00 0.00 0.00 60 1010.3
20260508015722 47 71 2.0 7.0 0.00 0.00 0.00 59 1010.3
20260508014822 48 79 4.0 10.0 0.00 0.00 0.00 57 1010.3
20260508013923 49 0 0.0 5.0 0.00 0.00 0.00 52 1010.2
20260508013022 48 63 1.0 4.0 0.00 0.00 0.00 51 1010.1
20260508012122 48 78 2.0 8.0 0.00 0.00 0.00 54 1010.2
20260508010323 49 76 3.0 10.0 0.00 0.00 0.00 54 1010.4
20260508005423 49 83 3.0 11.0 0.00 0.00 0.00 54 1010.4
20260508004522 49 0 0.0 4.0 0.00 0.00 0.00 51 1010.5
20260508003622 48 0 0.0 4.0 0.00 0.00 0.00 53 1010.6
20260508002723 47 296 1.0 4.0 0.00 0.00 0.00 53 1010.7
20260508001822 47 313 1.0 4.0 0.00 0.00 0.00 52 1010.9
20260508000922 47 318 1.0 4.0 0.00 0.00 0.00 56 1011.0
20260508000022 47 259 1.0 4.0 0.00 0.00 0.00 54 1011.1
20260507235123 47 264 2.0 4.0 0.00 0.00 0.00 55 1011.2
20260507234222 47 0 0.0 1.0 0.00 0.00 0.00 54 1011.3
20260507233322 47 0 0.0 0.0 0.00 0.00 0.00 54 1011.3
20260507232422 47 0 0.0 1.0 0.00 0.00 0.00 53 1011.4
20260507231522 47 0 0.0 4.0 0.00 0.00 0.00 54 1011.5
20260507230622 48 0 0.0 0.0 0.00 0.00 0.00 55 1011.5
20260507225723 48 0 0.0 1.0 0.00 0.00 0.00 56 1011.6
20260507224823 47 0 0.0 2.0 0.00 0.00 0.00 58 1011.6
20260507223922 46 58 1.0 5.0 0.00 0.00 0.00 58 1011.7
20260507223023 46 0 0.0 1.0 0.00 0.00 0.00 56 1011.7
20260507222122 46 0 0.0 0.0 0.00 0.00 0.00 57 1011.6
20260507221222 46 35 1.0 4.0 0.00 0.00 0.00 57 1011.7
20260507215423 46 64 1.0 6.0 0.00 0.00 0.00 58 1011.8
20260507214522 46 0 0.0 3.0 0.00 0.00 0.00 58 1011.7
20260507213622 46 0 0.0 1.0 0.00 0.00 0.00 58 1011.8
20260507212722 46 0 0.0 4.0 0.00 0.00 0.00 56 1011.8
20260507210922 45 0 0.0 4.0 0.00 0.00 0.00 60 1011.8
20260507210023 45 0 0.0 3.0 0.00 0.00 0.00 58 1011.8
20260507205122 45 46 1.0 4.0 0.00 0.00 0.00 58 1011.9
20260507204223 45 49 1.0 4.0 0.00 0.00 0.00 60 1011.9
20260507203323 44 130 1.0 6.0 0.00 0.00 0.00 58 1012.0
20260507202422 44 93 1.0 6.0 0.00 0.00 0.00 60 1012.0
20260507201523 44 0 0.0 0.0 0.00 0.00 0.00 61 1011.9
20260507195723 44 64 2.0 6.0 0.00 0.00 0.00 60 1012.0
20260507194822 44 42 1.0 5.0 0.00 0.00 0.00 61 1012.0
20260507193923 43 47 1.0 4.0 0.00 0.00 0.00 62 1012.2
20260507193023 43 62 2.0 5.0 0.00 0.00 0.00 63 1012.2
20260507192123 42 0 0.0 4.0 0.00 0.00 0.00 65 1012.2
20260507191222 42 53 1.0 5.0 0.00 0.00 0.00 65 1012.3
20260507190322 42 80 1.0 5.0 0.00 0.00 0.00 66 1012.3
20260507185422 42 87 1.0 4.0 0.00 0.00 0.00 64 1012.3
20260507184523 42 83 1.0 5.0 0.00 0.00 0.00 67 1012.4
20260507183622 41 92 1.0 5.0 0.00 0.00 0.00 69 1012.5
20260507181823 40 0 0.0 2.0 0.00 0.00 0.00 71 1012.8
20260507180922 40 0 0.0 1.0 0.00 0.00 0.00 72 1012.7
20260507180023 39 0 0.0 1.0 0.00 0.00 0.00 72 1012.8
20260507174223 38 0 0.0 2.0 0.00 0.00 0.00 74 1012.8
20260507173323 38 65 1.0 4.0 0.00 0.00 0.00 74 1012.9
20260507172423 38 0 0.0 3.0 0.00 0.00 0.00 75 1013.0
20260507171523 38 0 0.0 2.0 0.00 0.00 0.00 76 1012.9
20260507170623 37 0 0.0 0.0 0.00 0.01 0.00 77 1012.8
20260507163023 36 0 0.0 1.0 0.00 0.01 0.00 82 1013.0
20260507162123 35 0 0.0 4.0 0.00 0.01 0.00 86 1013.0
20260507161223 33 61 1.0 5.0 0.00 0.01 0.00 89 1012.9
20260507155423 31 0 0.0 0.0 0.00 0.01 0.00 90 1012.9
20260507153623 30 0 0.0 0.0 0.00 0.01 0.00 89 1012.9
20260507151823 30 0 0.0 2.0 0.00 0.01 0.00 89 1012.7
20260507150923 30 0 0.0 2.0 0.00 0.01 0.00 89 1012.7
20260507150023 30 0 0.0 0.0 0.00 0.01 0.00 89 1012.8